• In Deutschland
  • Länderverzeichnis
  • Für 7 Tage
  • Wassertemperatur
  • Satellitenkarten
  • Wetterkarte
  • Widgets
  • user-avatar
    Anmelden

    Stündliche Wetter Valuevka

    Heute, 17 Juli, Dienstag

    Zeit Temperatur Niederschläge Wind Luftdruck Luftfeuchtigkeit
    00:00 +23°C° 0 mm 5 m/S 741 mmHg 68%
    01:00 +23°C° 0 mm 6 m/S 741 mmHg 70%
    02:00 +22°C° 0 mm 6 m/S 741 mmHg 72%
    03:00 +22°C° 0 mm 6 m/S 741 mmHg 74%
    04:00 +22°C° 0 mm 6 m/S 741 mmHg 75%
    05:00 +22°C° 0 mm 7 m/S 741 mmHg 75%
    06:00 +22°C° 0 mm 7 m/S 741 mmHg 75%
    07:00 +23°C° 0 mm 7 m/S 741 mmHg 69%
    08:00 +26°C° 0 mm 8 m/S 741 mmHg 63%
    09:00 +27°C° 0 mm 8 m/S 742 mmHg 57%
    10:00 +28°C° 0 mm 8 m/S 742 mmHg 53%
    11:00 +29°C° 0 mm 8 m/S 741 mmHg 49%
    12:00 +31°C° 0 mm 8 m/S 741 mmHg 45%
    13:00 +32°C° 0 mm 8 m/S 741 mmHg 43%
    14:00 +32°C° 0 mm 8 m/S 741 mmHg 41%
    15:00 +33°C° 0 mm 8 m/S 741 mmHg 39%
    16:00 +32°C° 0 mm 7 m/S 741 mmHg 41%
    17:00 +30°C° 0 mm 7 m/S 742 mmHg 43%
    18:00 +30°C° 0 mm 7 m/S 742 mmHg 44%
    19:00 +29°C° 0 mm 6 m/S 742 mmHg 48%
    20:00 +27°C° 0 mm 5 m/S 742 mmHg 52%
    21:00 +26°C° 0 mm 4 m/S 743 mmHg 55%
    22:00 +26°C° 0 mm 4 m/S 743 mmHg 58%
    23:00 +25°C° 0 mm 4 m/S 743 mmHg 60%

    Morgen, 18 Juli, Mittwoch

    Zeit Temperatur Niederschläge Wind Luftdruck Luftfeuchtigkeit
    00:00 +25°C° 0 mm 4 m/S 743 mmHg 63%
    01:00 +23°C° 0 mm 4 m/S 743 mmHg 66%
    02:00 +23°C° 0 mm 4 m/S 743 mmHg 69%
    03:00 +22°C° 0 mm 4 m/S 743 mmHg 73%
    04:00 +22°C° 0 mm 4 m/S 743 mmHg 74%
    05:00 +22°C° 0 mm 5 m/S 743 mmHg 74%
    06:00 +22°C° 0 mm 5 m/S 743 mmHg 75%
    07:00 +25°C° 0 mm 5 m/S 743 mmHg 68%
    08:00 +26°C° 0 mm 5 m/S 743 mmHg 62%
    09:00 +28°C° 0 mm 5 m/S 743 mmHg 55%
    10:00 +29°C° 0 mm 5 m/S 743 mmHg 50%
    11:00 +30°C° 0 mm 5 m/S 743 mmHg 45%
    12:00 +32°C° 0 mm 5 m/S 743 mmHg 40%
    13:00 +33°C° 0 mm 5 m/S 743 mmHg 39%
    14:00 +33°C° 0 mm 5 m/S 743 mmHg 37%
    15:00 +34°C° 0 mm 5 m/S 742 mmHg 36%
    16:00 +34°C° 0 mm 4 m/S 742 mmHg 37%
    17:00 +33°C° 0 mm 3 m/S 742 mmHg 38%
    18:00 +32°C° 0 mm 2 m/S 742 mmHg 39%
    19:00 +31°C° 0,1 mm 2 m/S 742 mmHg 42%
    20:00 +30°C° 0,1 mm 2 m/S 743 mmHg 45%
    21:00 +29°C° 0,1 mm 1 m/S 743 mmHg 48%
    22:00 +28°C° 0,4 mm 2 m/S 743 mmHg 52%
    23:00 +27°C° 0,4 mm 2 m/S 743 mmHg 55%

    übermorgen, 19 Juli, Donnerstag

    Zeit Temperatur Niederschläge Wind Luftdruck Luftfeuchtigkeit
    00:00 +26°C° 0,4 mm 2 m/S 743 mmHg 59%
    01:00 +26°C° 0,4 mm 2 m/S 743 mmHg 61%
    02:00 +26°C° 0,4 mm 2 m/S 743 mmHg 63%
    03:00 +25°C° 0,4 mm 2 m/S 743 mmHg 65%
    04:00 +25°C° 0,2 mm 2 m/S 743 mmHg 64%
    05:00 +26°C° 0,2 mm 2 m/S 743 mmHg 64%
    06:00 +26°C° 0,2 mm 2 m/S 743 mmHg 64%
    07:00 +27°C° 0 mm 2 m/S 743 mmHg 59%
    08:00 +29°C° 0 mm 2 m/S 743 mmHg 54%
    09:00 +30°C° 0 mm 3 m/S 743 mmHg 49%
    10:00 +31°C° 0 mm 2 m/S 743 mmHg 46%
    11:00 +32°C° 0 mm 2 m/S 743 mmHg 43%
    12:00 +32°C° 0 mm 2 m/S 743 mmHg 40%
    13:00 +34°C° 0 mm 2 m/S 743 mmHg 37%
    14:00 +35°C° 0 mm 2 m/S 742 mmHg 34%
    15:00 +36°C° 0 mm 2 m/S 742 mmHg 32%
    16:00 +36°C° 0 mm 2 m/S 742 mmHg 31%
    17:00 +36°C° 0 mm 2 m/S 742 mmHg 31%
    18:00 +35°C° 0 mm 1 m/S 742 mmHg 31%
    19:00 +35°C° 0 mm 2 m/S 742 mmHg 35%
    20:00 +32°C° 0 mm 2 m/S 742 mmHg 39%
    21:00 +31°C° 0 mm 2 m/S 742 mmHg 43%
    22:00 +30°C° 0,3 mm 2 m/S 742 mmHg 47%
    23:00 +29°C° 0,3 mm 3 m/S 742 mmHg 50%

    20 Juli, Freitag

    Zeit Temperatur Niederschläge Wind Luftdruck Luftfeuchtigkeit
    00:00 +28°C° 0,3 mm 3 m/S 742 mmHg 54%
    01:00 +28°C° 0,5 mm 3 m/S 742 mmHg 56%
    02:00 +27°C° 0,5 mm 3 m/S 742 mmHg 58%
    03:00 +27°C° 0,5 mm 2 m/S 742 mmHg 61%
    04:00 +27°C° 0 mm 2 m/S 742 mmHg 59%
    05:00 +28°C° 0 mm 2 m/S 742 mmHg 57%
    06:00 +28°C° 0 mm 1 m/S 743 mmHg 55%
    07:00 +30°C° 0 mm 1 m/S 743 mmHg 50%
    08:00 +31°C° 0 mm 2 m/S 743 mmHg 44%
    09:00 +34°C° 0 mm 2 m/S 743 mmHg 39%
    10:00 +34°C° 0 mm 1 m/S 743 mmHg 36%
    11:00 +34°C° 0 mm 1 m/S 743 mmHg 33%
    12:00 +35°C° 0 mm 1 m/S 743 mmHg 30%
    13:00 +36°C° 0 mm 1 m/S 743 mmHg 29%
    14:00 +36°C° 0 mm 1 m/S 742 mmHg 28%
    15:00 +36°C° 0 mm 1 m/S 742 mmHg 26%
    16:00 +36°C° 0 mm 1 m/S 742 mmHg 27%
    17:00 +37°C° 0 mm 2 m/S 742 mmHg 27%
    18:00 +37°C° 0 mm 2 m/S 742 mmHg 27%
    19:00 +36°C° 0 mm 2 m/S 742 mmHg 30%
    20:00 +35°C° 0 mm 2 m/S 742 mmHg 34%
    21:00 +32°C° 0 mm 2 m/S 743 mmHg 37%
    22:00 +32°C° 0 mm 2 m/S 743 mmHg 39%
    23:00 +31°C° 0 mm 2 m/S 743 mmHg 41%

    21 Juli, Samstag

    Zeit Temperatur Niederschläge Wind Luftdruck Luftfeuchtigkeit
    00:00 +30°C° 0 mm 2 m/S 743 mmHg 43%
    01:00 +30°C° 0,3 mm 2 m/S 743 mmHg 46%
    02:00 +29°C° 0,3 mm 2 m/S 742 mmHg 49%
    03:00 +29°C° 0,3 mm 2 m/S 742 mmHg 52%
    04:00 +28°C° 0,8 mm 2 m/S 743 mmHg 53%
    05:00 +28°C° 0,8 mm 2 m/S 743 mmHg 54%
    06:00 +28°C° 0,8 mm 2 m/S 743 mmHg 56%
    07:00 +30°C° 0 mm 2 m/S 743 mmHg 51%
    08:00 +31°C° 0 mm 1 m/S 744 mmHg 46%
    09:00 +32°C° 0 mm 1 m/S 744 mmHg 41%
    10:00 +33°C° 0 mm 1 m/S 744 mmHg 38%
    11:00 +34°C° 0 mm 1 m/S 744 mmHg 36%
    12:00 +35°C° 0 mm 1 m/S 743 mmHg 33%
    13:00 +36°C° 0 mm 1 m/S 743 mmHg 32%
    14:00 +36°C° 0 mm 1 m/S 743 mmHg 30%
    15:00 +37°C° 0 mm 1 m/S 743 mmHg 28%
    16:00 +36°C° 0 mm 1 m/S 743 mmHg 29%
    17:00 +37°C° 0 mm 2 m/S 743 mmHg 29%
    18:00 +37°C° 0 mm 2 m/S 743 mmHg 30%
    19:00 +36°C° 0 mm 2 m/S 743 mmHg 33%
    20:00 +35°C° 0 mm 2 m/S 743 mmHg 36%
    21:00 +32°C° 0 mm 2 m/S 743 mmHg 39%
    22:00 +31°C° 0,3 mm 2 m/S 743 mmHg 43%
    23:00 +31°C° 0,3 mm 3 m/S 743 mmHg 47%

    22 Juli, Sonntag

    Zeit Temperatur Niederschläge Wind Luftdruck Luftfeuchtigkeit
    00:00 +30°C° 0,3 mm 3 m/S 743 mmHg 51%
    01:00 +29°C° 0,2 mm 3 m/S 743 mmHg 53%
    02:00 +29°C° 0,2 mm 2 m/S 743 mmHg 55%
    03:00 +28°C° 0,2 mm 2 m/S 743 mmHg 57%
    04:00 +28°C° 0,2 mm 2 m/S 743 mmHg 58%
    05:00 +28°C° 0,2 mm 3 m/S 744 mmHg 59%
    06:00 +28°C° 0,2 mm 3 m/S 744 mmHg 60%
    07:00 +29°C° 0 mm 3 m/S 744 mmHg 57%
    08:00 +30°C° 0 mm 3 m/S 744 mmHg 54%
    09:00 +31°C° 0 mm 3 m/S 744 mmHg 51%
    10:00 +31°C° 0,2 mm 2 m/S 744 mmHg 51%
    11:00 +31°C° 0,2 mm 2 m/S 744 mmHg 50%
    12:00 +31°C° 0,2 mm 2 m/S 743 mmHg 50%
    13:00 +31°C° 0,1 mm 2 m/S 743 mmHg 49%
    14:00 +31°C° 0,1 mm 3 m/S 743 mmHg 48%
    15:00 +31°C° 0,1 mm 3 m/S 743 mmHg 47%
    16:00 +33°C° 0,1 mm 3 m/S 743 mmHg 45%
    17:00 +33°C° 0,1 mm 3 m/S 743 mmHg 43%
    18:00 +34°C° 0,1 mm 3 m/S 743 mmHg 41%
    19:00 +31°C° 0,6 mm 3 m/S 743 mmHg 46%
    20:00 +30°C° 0,6 mm 3 m/S 743 mmHg 51%
    21:00 +29°C° 0,6 mm 3 m/S 743 mmHg 55%
    22:00 +29°C° 0,2 mm 3 m/S 743 mmHg 55%
    23:00 +29°C° 0,2 mm 3 m/S 743 mmHg 56%
    Mehr zeigen